KAL792 RJFF-RKSI

Flight info

Callsign KAL792
Flight time 1h 2m
Altitude 30000
Route HAKAT5 DGC G339 BEETL Y208 INVOK Z91 PSN Y782 BITUX Z53 BASEM Y685 GUKDO GUKDO2E
Aircraft A321/M-SDE3FGHIRWY/LB1

Departure

Time 2026-05-08 12:17
Airport Fukuoka Airport (RJFF)

Arrival

Time 2026-05-08 13:20
Airport Incheon International Airport (RKSI)
Time Latitude Longitude Altitude Speed Heading
2026-05-08 12:01 33.58491 130.44554 35 ft 0 kts 241°
2026-05-08 12:09 33.58495 130.44563 35 ft 4 kts 242°
2026-05-08 12:09 33.58508 130.44592 35 ft 4 kts 243°
2026-05-08 12:09 33.58519 130.44621 35 ft 4 kts 245°
2026-05-08 12:10 33.58530 130.44651 36 ft 4 kts 249°
2026-05-08 12:10 33.58538 130.44681 36 ft 4 kts 259°
2026-05-08 12:10 33.58539 130.44711 36 ft 4 kts 298°
2026-05-08 12:10 33.58534 130.44721 37 ft 0 kts 331°
2026-05-08 12:12 33.58535 130.44720 37 ft 1 kts 331°
2026-05-08 12:13 33.58546 130.44713 36 ft 1 kts 331°
2026-05-08 12:13 33.58556 130.44706 37 ft 5 kts 331°
2026-05-08 12:13 33.58597 130.44679 37 ft 6 kts 331°
2026-05-08 12:13 33.58633 130.44655 36 ft 9 kts 331°
2026-05-08 12:14 33.58693 130.44615 35 ft 11 kts 331°
2026-05-08 12:14 33.58774 130.44562 33 ft 14 kts 331°
2026-05-08 12:14 33.58849 130.44512 31 ft 10 kts 330°
2026-05-08 12:14 33.58907 130.44473 31 ft 10 kts 330°
2026-05-08 12:15 33.58975 130.44427 31 ft 12 kts 331°
2026-05-08 12:15 33.59070 130.44365 29 ft 22 kts 330°
2026-05-08 12:15 33.59199 130.44279 31 ft 18 kts 331°
2026-05-08 12:15 33.59307 130.44207 29 ft 18 kts 331°
2026-05-08 12:16 33.59411 130.44138 30 ft 16 kts 331°
2026-05-08 12:16 33.59508 130.44077 29 ft 16 kts 340°
2026-05-08 12:16 33.59569 130.44137 28 ft 11 kts 108°
2026-05-08 12:16 33.59523 130.44186 30 ft 7 kts 153°
2026-05-08 12:17 33.59442 130.44241 30 ft 39 kts 150°
2026-05-08 12:17 33.58933 130.44588 30 ft 125 kts 150°
2026-05-08 12:17 33.57983 130.45231 131 ft 179 kts 151°
2026-05-08 12:17 33.56912 130.45968 1043 ft 176 kts 151°
2026-05-08 12:18 33.55845 130.46702 1816 ft 177 kts 152°
2026-05-08 12:18 33.54724 130.47467 2071 ft 195 kts 153°
2026-05-08 12:18 33.53480 130.48310 2222 ft 217 kts 152°
2026-05-08 12:18 33.52114 130.49236 2391 ft 235 kts 153°
2026-05-08 12:19 33.50579 130.50131 2577 ft 256 kts 156°
2026-05-08 12:19 33.49503 130.50799 2780 ft 269 kts 153°
2026-05-08 12:19 33.47305 130.52313 3613 ft 280 kts 151°
2026-05-08 12:19 33.45603 130.53508 4320 ft 285 kts 151°
2026-05-08 12:20 33.43863 130.54681 5017 ft 289 kts 159°
2026-05-08 12:20 33.41909 130.55140 5684 ft 287 kts 187°
2026-05-08 12:20 33.40600 130.54840 6142 ft 283 kts 206°
2026-05-08 12:20 33.38571 130.53042 7057 ft 273 kts 239°
2026-05-08 12:21 33.37608 130.51098 7770 ft 272 kts 245°
2026-05-08 12:21 33.37021 130.49771 8242 ft 272 kts 252°
2026-05-08 12:21 33.36691 130.47584 8905 ft 268 kts 277°
2026-05-08 12:21 33.37201 130.45469 9548 ft 267 kts 301°
2026-05-08 12:22 33.38453 130.43831 10180 ft 272 kts 323°
2026-05-08 12:22 33.40253 130.42847 10360 ft 296 kts 337°
2026-05-08 12:22 33.42199 130.41812 10492 ft 316 kts 328°
2026-05-08 12:22 33.44155 130.40452 10623 ft 333 kts 326°
2026-05-08 12:23 33.46259 130.39212 11127 ft 342 kts 336°
2026-05-08 12:23 33.48607 130.38562 11744 ft 352 kts 350°
2026-05-08 12:23 33.51079 130.38531 12394 ft 357 kts 355°
2026-05-08 12:23 33.53575 130.38593 13020 ft 361 kts 355°
2026-05-08 12:24 33.56103 130.38675 13602 ft 364 kts 355°
2026-05-08 12:24 33.58651 130.38756 14142 ft 368 kts 354°
2026-05-08 12:24 33.61225 130.38828 14694 ft 371 kts 354°
2026-05-08 12:24 33.63815 130.38874 15217 ft 373 kts 351°
2026-05-08 12:25 33.66360 130.38473 15703 ft 366 kts 338°
2026-05-08 12:25 33.68737 130.37454 16177 ft 360 kts 327°
2026-05-08 12:25 33.70855 130.35905 16692 ft 354 kts 316°
2026-05-08 12:25 33.72784 130.34062 17200 ft 355 kts 315°
2026-05-08 12:26 33.74724 130.32211 17720 ft 357 kts 315°
2026-05-08 12:26 33.76682 130.30350 18209 ft 359 kts 314°
2026-05-08 12:26 33.78649 130.28488 18666 ft 361 kts 314°
2026-05-08 12:26 33.80633 130.26609 19101 ft 364 kts 314°
2026-05-08 12:27 33.82628 130.24715 19522 ft 367 kts 314°
2026-05-08 12:27 33.84634 130.22802 19936 ft 370 kts 314°
2026-05-08 12:27 33.86630 130.20898 20337 ft 372 kts 313°
2026-05-08 12:27 33.88667 130.18954 20734 ft 375 kts 313°
2026-05-08 12:28 33.90713 130.16999 21121 ft 377 kts 313°
2026-05-08 12:28 33.92777 130.15028 21506 ft 380 kts 313°
2026-05-08 12:28 33.94859 130.13042 21880 ft 383 kts 313°
2026-05-08 12:28 33.96950 130.11046 22245 ft 385 kts 313°
2026-05-08 12:29 33.99058 130.09034 22615 ft 388 kts 313°
2026-05-08 12:29 34.01179 130.07011 22968 ft 390 kts 312°
2026-05-08 12:29 34.03310 130.04976 23306 ft 393 kts 312°
2026-05-08 12:29 34.05444 130.02935 23633 ft 395 kts 312°
2026-05-08 12:30 34.07600 130.00865 23967 ft 397 kts 312°
2026-05-08 12:30 34.09767 129.98784 24261 ft 400 kts 312°
2026-05-08 12:30 34.11951 129.96685 24574 ft 402 kts 312°
2026-05-08 12:30 34.14143 129.94574 24892 ft 404 kts 311°
2026-05-08 12:31 34.16343 129.92455 25200 ft 406 kts 311°
2026-05-08 12:31 34.18557 129.90326 25511 ft 408 kts 311°
2026-05-08 12:31 34.20779 129.88189 25814 ft 410 kts 311°
2026-05-08 12:31 34.23016 129.86033 26104 ft 412 kts 311°
2026-05-08 12:32 34.25264 129.83867 26392 ft 414 kts 311°
2026-05-08 12:32 34.27520 129.81694 26678 ft 415 kts 311°
2026-05-08 12:32 34.29790 129.79520 26956 ft 417 kts 311°
2026-05-08 12:32 34.32068 129.77345 27231 ft 419 kts 311°
2026-05-08 12:33 34.34361 129.75161 27526 ft 420 kts 311°
2026-05-08 12:33 34.36660 129.72970 27783 ft 421 kts 311°
2026-05-08 12:33 34.38967 129.70771 28058 ft 423 kts 311°
2026-05-08 12:33 34.41280 129.68558 28330 ft 424 kts 311°
2026-05-08 12:34 34.43594 129.66339 28601 ft 424 kts 311°
2026-05-08 12:34 34.45902 129.64124 28964 ft 423 kts 311°
2026-05-08 12:34 34.48205 129.61913 29276 ft 422 kts 310°
2026-05-08 12:34 34.50504 129.59703 29608 ft 420 kts 310°
2026-05-08 12:35 34.52789 129.57503 29932 ft 419 kts 310°
2026-05-08 12:35 34.55066 129.55313 30032 ft 414 kts 310°
2026-05-08 12:35 34.59510 129.51061 30043 ft 403 kts 309°
2026-05-08 12:36 34.63884 129.46835 30044 ft 401 kts 309°
2026-05-08 12:36 34.68230 129.42608 30044 ft 400 kts 309°
2026-05-08 12:37 34.72572 129.38400 30046 ft 398 kts 309°
2026-05-08 12:37 34.76912 129.34202 30053 ft 398 kts 309°
2026-05-08 12:38 34.81214 129.30035 30058 ft 398 kts 309°
2026-05-08 12:38 34.85549 129.25850 30063 ft 397 kts 309°
2026-05-08 12:39 34.89875 129.21680 30067 ft 396 kts 309°
2026-05-08 12:39 34.94189 129.17515 30077 ft 395 kts 309°
2026-05-08 12:40 34.98487 129.13349 30079 ft 394 kts 309°
2026-05-08 12:40 35.02768 129.09185 30087 ft 393 kts 308°
2026-05-08 12:41 35.07046 129.05018 30088 ft 392 kts 308°
2026-05-08 12:41 35.11322 129.00864 30094 ft 394 kts 310°
2026-05-08 12:42 35.13699 128.99072 30089 ft 411 kts 320°
2026-05-08 12:42 35.16243 128.97569 30085 ft 412 kts 320°
2026-05-08 12:42 35.21401 128.94542 30090 ft 411 kts 320°
2026-05-08 12:43 35.26544 128.91518 30085 ft 410 kts 320°
2026-05-08 12:43 35.31692 128.88468 30085 ft 410 kts 320°
2026-05-08 12:44 35.36828 128.85434 30090 ft 409 kts 320°
2026-05-08 12:44 35.41943 128.82403 30112 ft 408 kts 320°
2026-05-08 12:45 35.47049 128.79369 30118 ft 407 kts 319°
2026-05-08 12:45 35.52138 128.76340 30127 ft 406 kts 319°
2026-05-08 12:46 35.57182 128.73340 30144 ft 404 kts 320°
2026-05-08 12:46 35.62238 128.70323 30154 ft 403 kts 319°
2026-05-08 12:47 35.67268 128.67302 30164 ft 403 kts 319°
2026-05-08 12:47 35.72298 128.64288 30168 ft 401 kts 319°
2026-05-08 12:48 35.77311 128.61293 30142 ft 397 kts 318°
2026-05-08 12:48 35.79682 128.59625 29983 ft 390 kts 314°
2026-05-08 12:48 35.81992 128.57891 29730 ft 388 kts 313°
2026-05-08 12:49 35.84278 128.56126 29482 ft 388 kts 313°
2026-05-08 12:49 35.86556 128.54342 29225 ft 388 kts 313°
2026-05-08 12:49 35.88835 128.52557 28988 ft 388 kts 314°
2026-05-08 12:49 35.91117 128.50779 28727 ft 388 kts 315°
2026-05-08 12:50 35.93405 128.49009 28473 ft 389 kts 315°
2026-05-08 12:50 35.95701 128.47234 28220 ft 389 kts 315°
2026-05-08 12:50 35.98003 128.45457 27966 ft 391 kts 315°
2026-05-08 12:50 36.00316 128.43676 27707 ft 392 kts 315°
2026-05-08 12:51 36.02480 128.42012 27460 ft 392 kts 316°
2026-05-08 12:51 36.06894 128.38632 26992 ft 390 kts 316°
2026-05-08 12:51 36.09191 128.36868 26738 ft 388 kts 316°
2026-05-08 12:52 36.11470 128.35101 26491 ft 386 kts 316°
2026-05-08 12:52 36.16006 128.31561 25986 ft 384 kts 317°
2026-05-08 12:52 36.18263 128.29802 25737 ft 383 kts 317°
2026-05-08 12:53 36.20515 128.28054 25488 ft 381 kts 317°
2026-05-08 12:53 36.22758 128.26316 25228 ft 379 kts 318°
2026-05-08 12:53 36.24993 128.24580 24980 ft 378 kts 318°
2026-05-08 12:53 36.27214 128.22851 24731 ft 377 kts 318°
2026-05-08 12:54 36.29437 128.21123 24480 ft 376 kts 318°
2026-05-08 12:54 36.31644 128.19404 24234 ft 374 kts 319°
2026-05-08 12:54 36.33842 128.17688 23977 ft 373 kts 319°
2026-05-08 12:54 36.36036 128.15976 23730 ft 372 kts 319°
2026-05-08 12:55 36.38221 128.14274 23476 ft 370 kts 319°
2026-05-08 12:55 36.40394 128.12574 23222 ft 368 kts 319°
2026-05-08 12:55 36.42562 128.10880 22973 ft 367 kts 320°
2026-05-08 12:55 36.44688 128.09218 22728 ft 365 kts 320°
2026-05-08 12:56 36.46833 128.07537 22463 ft 363 kts 320°
2026-05-08 12:56 36.48963 128.05864 22221 ft 362 kts 320°
2026-05-08 12:56 36.51093 128.04192 21968 ft 362 kts 320°
2026-05-08 12:56 36.53225 128.02523 21721 ft 361 kts 321°
2026-05-08 12:57 36.55341 128.00860 21466 ft 360 kts 321°
2026-05-08 12:57 36.57455 127.99196 21220 ft 358 kts 321°
2026-05-08 12:57 36.59558 127.97543 20968 ft 356 kts 322°
2026-05-08 12:57 36.61661 127.95889 20719 ft 364 kts 322°
2026-05-08 12:58 36.63786 127.94216 20457 ft 356 kts 322°
2026-05-08 12:58 36.65849 127.92598 20212 ft 353 kts 322°
2026-05-08 12:58 36.67921 127.90973 19960 ft 351 kts 322°
2026-05-08 12:58 36.69984 127.89349 19709 ft 350 kts 322°
2026-05-08 12:59 36.72040 127.87723 19458 ft 350 kts 323°
2026-05-08 12:59 36.74087 127.86100 19207 ft 348 kts 323°
2026-05-08 12:59 36.76128 127.84483 18955 ft 347 kts 323°
2026-05-08 12:59 36.78166 127.82871 18695 ft 346 kts 323°
2026-05-08 13:00 36.80199 127.81268 18464 ft 345 kts 324°
2026-05-08 13:00 36.82227 127.79668 18205 ft 345 kts 324°
2026-05-08 13:00 36.84222 127.78090 17958 ft 343 kts 324°
2026-05-08 13:00 36.86233 127.76495 17708 ft 342 kts 324°
2026-05-08 13:01 36.88230 127.74905 17458 ft 341 kts 324°
2026-05-08 13:01 36.90075 127.73073 17203 ft 337 kts 311°
2026-05-08 13:01 36.91333 127.70627 16954 ft 337 kts 294°
2026-05-08 13:01 36.92098 127.67852 16701 ft 338 kts 290°
2026-05-08 13:02 36.92812 127.65078 16451 ft 338 kts 290°
2026-05-08 13:02 36.93523 127.62283 16206 ft 337 kts 290°
2026-05-08 13:02 36.94232 127.59488 15951 ft 337 kts 290°
2026-05-08 13:02 36.94941 127.56697 15699 ft 336 kts 290°
2026-05-08 13:03 36.95651 127.53912 15448 ft 335 kts 290°
2026-05-08 13:03 36.96358 127.51137 15189 ft 334 kts 290°
2026-05-08 13:03 36.97056 127.48393 14945 ft 335 kts 290°
2026-05-08 13:03 36.97763 127.45625 14696 ft 334 kts 290°
2026-05-08 13:04 36.98470 127.42855 14444 ft 334 kts 290°
2026-05-08 13:04 36.99176 127.40093 14193 ft 333 kts 290°
2026-05-08 13:04 36.99875 127.37331 13945 ft 333 kts 290°
2026-05-08 13:04 37.00575 127.34572 13693 ft 333 kts 290°
2026-05-08 13:05 37.01273 127.31814 13436 ft 332 kts 290°
2026-05-08 13:05 37.01972 127.29053 13190 ft 332 kts 290°
2026-05-08 13:05 37.02668 127.26298 12939 ft 331 kts 290°
2026-05-08 13:05 37.03358 127.23556 12692 ft 330 kts 290°
2026-05-08 13:06 37.04046 127.20819 12437 ft 329 kts 291°
2026-05-08 13:06 37.04736 127.18092 12185 ft 329 kts 291°
2026-05-08 13:06 37.05193 127.16281 12019 ft 328 kts 291°
2026-05-08 13:06 37.06099 127.12673 11567 ft 321 kts 291°
2026-05-08 13:07 37.06764 127.10015 11127 ft 316 kts 290°
2026-05-08 13:07 37.07389 127.07511 10811 ft 292 kts 291°
2026-05-08 13:07 37.07786 127.05917 10633 ft 277 kts 291°
2026-05-08 13:07 37.08527 127.02955 10105 ft 266 kts 291°
2026-05-08 13:08 37.09086 127.00727 9861 ft 267 kts 291°
2026-05-08 13:08 37.09462 126.99230 9589 ft 267 kts 291°
2026-05-08 13:08 37.10018 126.97016 9184 ft 266 kts 290°
2026-05-08 13:08 37.10577 126.94797 8750 ft 268 kts 290°
2026-05-08 13:09 37.11128 126.92600 8352 ft 267 kts 290°
2026-05-08 13:09 37.11689 126.90353 7968 ft 266 kts 290°
2026-05-08 13:09 37.12235 126.88153 7617 ft 263 kts 290°
2026-05-08 13:09 37.12777 126.85968 7222 ft 263 kts 290°
2026-05-08 13:10 37.13313 126.83817 6819 ft 261 kts 290°
2026-05-08 13:10 37.13843 126.81665 6703 ft 257 kts 290°
2026-05-08 13:10 37.14374 126.79514 6449 ft 259 kts 290°
2026-05-08 13:10 37.14909 126.77354 6210 ft 260 kts 290°
2026-05-08 13:11 37.15441 126.75194 5966 ft 259 kts 290°
2026-05-08 13:11 37.16089 126.73103 5739 ft 255 kts 302°
2026-05-08 13:11 37.17153 126.71334 5622 ft 254 kts 317°
2026-05-08 13:11 37.18419 126.69836 5491 ft 245 kts 317°
2026-05-08 13:12 37.19632 126.68401 5359 ft 235 kts 317°
2026-05-08 13:12 37.20814 126.66997 4884 ft 232 kts 317°
2026-05-08 13:12 37.21974 126.65621 4364 ft 228 kts 317°
2026-05-08 13:12 37.23099 126.64279 4050 ft 213 kts 316°
2026-05-08 13:13 37.24123 126.63056 4027 ft 198 kts 316°
2026-05-08 13:13 37.25123 126.61865 4010 ft 196 kts 316°
2026-05-08 13:13 37.26037 126.60776 3998 ft 166 kts 316°
2026-05-08 13:13 37.26811 126.59855 3998 ft 144 kts 316°
2026-05-08 13:14 37.27520 126.59011 4007 ft 139 kts 316°
2026-05-08 13:14 37.28219 126.58178 4003 ft 139 kts 317°
2026-05-08 13:14 37.28952 126.57381 3749 ft 138 kts 320°
2026-05-08 13:14 37.29695 126.56654 3515 ft 137 kts 322°
2026-05-08 13:15 37.30463 126.55940 3306 ft 138 kts 322°
2026-05-08 13:15 37.31241 126.55234 3112 ft 138 kts 322°
2026-05-08 13:15 37.32021 126.54536 2924 ft 138 kts 323°
2026-05-08 13:15 37.32803 126.53839 2741 ft 138 kts 323°
2026-05-08 13:16 37.33585 126.53145 2553 ft 138 kts 323°
2026-05-08 13:16 37.34365 126.52452 2370 ft 138 kts 323°
2026-05-08 13:16 37.35148 126.51759 2190 ft 138 kts 323°
2026-05-08 13:16 37.35933 126.51062 2003 ft 138 kts 323°
2026-05-08 13:17 37.36717 126.50368 1820 ft 138 kts 323°
2026-05-08 13:17 37.37503 126.49672 1637 ft 138 kts 323°
2026-05-08 13:17 37.38287 126.48975 1452 ft 138 kts 323°
2026-05-08 13:17 37.39076 126.48275 1269 ft 139 kts 323°
2026-05-08 13:18 37.39869 126.47571 1085 ft 139 kts 323°
2026-05-08 13:18 37.40668 126.46884 897 ft 139 kts 324°
2026-05-08 13:18 37.41414 126.46223 730 ft 138 kts 323°
2026-05-08 13:18 37.42195 126.45512 511 ft 139 kts 322°
2026-05-08 13:19 37.42982 126.44810 305 ft 139 kts 323°
2026-05-08 13:19 37.43771 126.44108 170 ft 139 kts 324°
2026-05-08 13:19 37.44560 126.43412 48 ft 134 kts 324°
2026-05-08 13:19 37.45227 126.42809 33 ft 93 kts 325°
2026-05-08 13:20 37.45577 126.42510 31 ft 33 kts 336°
2026-05-08 13:20 37.45782 126.42455 32 ft 27 kts 18°
2026-05-08 13:20 37.45841 126.42511 33 ft 6 kts 353°
2026-05-08 13:20 37.45905 126.42475 33 ft 13 kts 328°
2026-05-08 13:21 37.45982 126.42407 32 ft 14 kts 324°
2026-05-08 13:21 37.46068 126.42395 33 ft 12 kts 33°
2026-05-08 13:21 37.46118 126.42476 31 ft 11 kts 54°
2026-05-08 13:21 37.46163 126.42556 32 ft 12 kts 54°
2026-05-08 13:22 37.46211 126.42641 32 ft 12 kts 54°
2026-05-08 13:22 37.46243 126.42727 33 ft 10 kts 83°
2026-05-08 13:22 37.46256 126.42809 32 ft 9 kts 71°
2026-05-08 13:22 37.46286 126.42872 33 ft 8 kts 54°
2026-05-08 13:23 37.46321 126.42932 32 ft 9 kts 54°
2026-05-08 13:23 37.46351 126.43012 33 ft 12 kts 90°
2026-05-08 13:23 37.46284 126.43087 33 ft 14 kts 155°
2026-05-08 13:23 37.46201 126.43133 33 ft 13 kts 155°
2026-05-08 13:24 37.46150 126.43194 33 ft 8 kts 80°
2026-05-08 13:24 37.46179 126.43248 31 ft 7 kts 53°
2026-05-08 13:24 37.46191 126.43270 33 ft 0 kts 54°